Flag for U.S.A. Weather past 2 weeks in Sidney, Montana, U.S.A.

Now
73 °F

Sunny.


Feels Like: 76 °F
Forecast: 63 / 91 °F
Wind: 14 mph from Southeast

Location: Sidney-Richland

Current Time: Jul 24, 2014 at 10:10:51 AM

Latest Report: Jul 24, 2014 at 9:35 AM


Visibility: 10 mi

Pressure: 29.84 "Hg

Humidity: 69%

Dew point: 63 °F

Location of SidneyLocation

Historic Weather in Sidney — Graph

°F

Sidney temperature yesterday

Maximum temperature yesterday: 91 °F (at 3:35 PM)
Minimum temperature yesterday: 66 °F (at 7:15 AM)
Average temperature yesterday: 81 °F

Past Weeks' High & Low Weather Summary

 TemperatureHumidityPressure
High95 °F (Jul 10, 4:55 PM)94% (Jul 11, 6:15 AM)30.39 "Hg (Jul 11, 6:15 AM)
Low43 °F (Jul 15, 4:35 AM)21% (Jul 20, 3:55 PM)29.64 "Hg (Jul 18, 4:15 AM)
Average70 °F57%29.98 "Hg
* Reported Jul 9 8:15 AM — Jul 24 8:55 AM, Sidney, Weather by CustomWeather, © 2014

Note: Actual official high and low records may vary slightly from our data, if they occured in-between our weather recording intervals... More about our weather records

Advertising

Sidney weather history for previous 24 hours

 ConditionsComfort  
Time TempWeatherWind HumidityBarometerVisibility
8:55 AM
Jul 24
72 °FSunny.17 mph73%29.85 "Hg10 mi
8:35 AM70 °FSunny.12 mph78%29.86 "Hg10 mi
8:15 AM68 °FSunny.12 mph78%29.86 "Hg10 mi
7:55 AM66 °FSunny.8 mph83%29.85 "Hg10 mi
7:35 AM64 °FSunny.9 mph88%29.86 "Hg10 mi
7:15 AM64 °FSunny.5 mph88%29.87 "Hg10 mi
6:55 AM64 °FSunny.7 mph88%29.87 "Hg10 mi
6:35 AM64 °FSunny.9 mph88%29.89 "Hg10 mi
6:15 AM64 °FClear.9 mph88%29.90 "Hg10 mi
5:55 AM64 °FPassing clouds.10 mph88%29.92 "Hg10 mi
5:35 AM64 °FThundershowers. Passing clouds.3 mph88%29.90 "Hg10 mi
5:15 AM64 °FThundershowers. Passing clouds.9 mph88%29.87 "Hg10 mi
4:55 AM64 °FThundershowers. Passing clouds.20 mph88%29.91 "Hg10 mi
4:35 AM66 °FThunderstorms. Partly cloudy.8 mph83%29.90 "Hg9 mi
3:55 AM70 °FClear.8 mph60%29.81 "Hg10 mi
3:35 AM70 °FClear.7 mph60%29.82 "Hg10 mi
3:15 AM70 °FClear.8 mph60%29.83 "Hg10 mi
2:55 AM70 °FClear.6 mph60%29.86 "Hg10 mi
2:35 AM70 °FClear.5 mph60%29.87 "Hg10 mi
2:15 AM70 °FClear.7 mph60%29.88 "Hg10 mi
1:55 AM72 °FClear.5 mph57%29.89 "Hg10 mi
1:35 AM72 °FClear.12 mph57%29.91 "Hg10 mi
1:15 AM72 °FClear.9 mph57%29.93 "Hg10 mi
12:55 AM73 °FClear.5 mph53%29.94 "Hg10 mi
12:35 AM73 °FClear.8 mph53%29.94 "Hg10 mi
11:35 PM
Jul 23
75 °FClear.7 mph54%29.96 "Hg10 mi
11:15 PM75 °FClear.7 mph54%29.96 "Hg10 mi
10:55 PM75 °FClear.8 mph57%29.96 "Hg10 mi
10:35 PM75 °FClear.8 mph61%29.97 "Hg10 mi
10:15 PM75 °FClear.8 mph61%29.97 "Hg10 mi
9:55 PM77 °FClear.9 mph61%29.97 "Hg10 mi
9:35 PM77 °FSunny.8 mph61%29.98 "Hg10 mi
8:55 PM79 °FSunny.8 mph58%29.99 "Hg10 mi
8:35 PM81 °FSunny.9 mph54%29.99 "Hg10 mi
8:15 PM82 °FSunny.8 mph55%29.99 "Hg10 mi
7:55 PM82 °FSunny.9 mph55%29.99 "Hg10 mi
7:35 PM82 °FSunny.13 mph55%30.00 "Hg10 mi
6:55 PM88 °FSunny.14 mph46%30.00 "Hg10 mi
6:35 PM88 °FSunny.13 mph46%30.01 "Hg10 mi
6:15 PM88 °FPassing clouds.14 mph46%30.01 "Hg10 mi
5:55 PM90 °FScattered clouds.12 mph43%30.01 "Hg10 mi
5:35 PMN/ASunny.10 mphN/A30.02 "Hg10 mi
5:15 PMN/ASunny.15 mphN/A30.02 "Hg10 mi
4:55 PMN/ASunny.10 mphN/A30.03 "Hg10 mi
4:35 PM90 °FSunny.13 mph43%30.04 "Hg10 mi
4:15 PMN/ASunny.14 mphN/A30.04 "Hg10 mi
3:55 PM90 °FPassing clouds.15 mph43%30.06 "Hg10 mi
3:35 PM91 °FSunny.12 mph41%30.06 "Hg10 mi
3:15 PM90 °FSunny.14 mph43%30.07 "Hg10 mi
2:55 PMN/ASunny.14 mphN/A30.07 "Hg10 mi
2:35 PM90 °FSunny.12 mph43%30.09 "Hg10 mi
2:15 PM86 °FSunny.10 mph49%30.10 "Hg8 mi
1:55 PM88 °FSunny.13 mph43%30.10 "Hg10 mi
1:15 PM88 °FSunny.9 mph46%30.12 "Hg10 mi
12:55 PM88 °FSunny.12 mph43%30.14 "Hg10 mi
12:35 PM86 °FSunny.12 mph46%30.15 "Hg10 mi
12:15 PM84 °FSunny.13 mph48%30.15 "Hg10 mi
11:55 AM86 °FSunny.9 mph46%30.16 "Hg10 mi
11:35 AMN/ASunny.13 mphN/A30.16 "Hg10 mi
11:15 AMN/ASunny.7 mphN/A30.17 "Hg10 mi
10:55 AM82 °FSunny.7 mph51%30.18 "Hg10 mi
10:35 AM81 °FSunny.8 mph54%30.18 "Hg4 mi
10:15 AM81 °FSunny.No wind54%30.18 "Hg10 mi
Weather by CustomWeather, © 2014

See weather overviewHow to use our weather pages